Regional Weather Roundup
Issued by NWS

Home | Current Version | Previous Version | Graphics & Text | Print | Product List | Glossary On
Versions: 1 2 3 4 5 6 7 8 9 10 11 12 13 14 15 16 17 18 19 20 21 22 23 24 25 26 27 28 29 30 31 32 33 34 35 36 37 38 39 40 41 42 43 44 45 46 47 48 49 50
000
ASUS43 KLMK 222310
RWRKY
KENTUCKY REGIONAL WEATHER ROUNDUP
NATIONAL WEATHER SERVICE LOUISVILLE KY
700 PM EDT SUN OCT 22 2017

NOTE "FAIR" INDICATES FEW OR NO CLOUDS BELOW 12,000 FEET
WITH NO SIGNIFICANT WEATHER AND/OR OBSTRUCTIONS TO VISIBILITY.

KYZ001>023-026-027-061>063-070>075-230000-
WESTERN AND SOUTH CENTRAL KENTUCKY

CITY           SKY/WX    TMP DP  RH WIND       PRES   REMARKS
PADUCAH        LGT RAIN  68  65  90 CALM      29.93F
HENDERSON      CLOUDY    74  61  63 SE8       29.96F
OWENSBORO      CLOUDY    74  61  63 SE10      29.98F
HOPKINSVILLE   DRIZZLE   72  63  72 SE5       29.97F
BOWLING GREEN  CLOUDY    74  60  61 SE7       30.02F
GLASGOW        CLOUDY    73  58  58 SE9       30.04S
$$

KYZ024-025-028>034-038-045-046-053-230000-
NORTH CENTRAL KENTUCKY

CITY           SKY/WX    TMP DP  RH WIND       PRES   REMARKS
LOUISVILLE/SDF CLOUDY    74  58  57 SE8       30.04S
LOUISVILLE/LOU PTCLDY    73  59  61 SE7       30.05F
FORT KNOX      CLOUDY    72  58  60 SE8       30.02F
$$

KYZ035>037-039>044-047>052-055>060-089>105-230000-
NORTHEAST KENTUCKY

CITY           SKY/WX    TMP DP  RH WIND       PRES   REMARKS
LEXINGTON      CLOUDY    70  53  54 SE8       30.10F
COVINGTON      MOCLDY    68  54  60 SE9       30.08F
FRANKFORT      CLOUDY    71  53  52 SE6       30.08F
$$

KYZ054-064>069-076>088-106>120-230000-
SOUTHEAST KENTUCKY

CITY           SKY/WX    TMP DP  RH WIND       PRES   REMARKS
JACKSON        PTCLDY    69  49  48 S3        30.16F
LONDON         CLOUDY    69  52  54 SE5       30.14F
SOMERSET       CLOUDY    70  54  56 E5        30.12F
MIDDLESBORO    CLOUDY    66  56  70 CALM      30.16F
MONTICELLO     CLOUDY    72  58  61 VRB6      30.12F
$$




USA.gov is the U.S. government's official web portal to all federal, state and local government web resources and services.